HYDRA-T

operational
NORAD ID: 62692 Int'l Des: 2025-009 Owner: AMEA/HYDRA Country: E
LEOCIRCULARRETROGRADESSO

About HYDRA-T

Description loading...

Live Position

Loading 3D Globe...

Upcoming Passes

Altitude History

Altitude vs Time

uPlot chart will show altitude changes over time

Two-Line Element Set

1 62692U 25009CM 25311.65382386 .00147067 00000-0 27337-2 0 9993
2 62692 97.3945 33.3691 0003058 254.4537 105.6376 15.48352850 45340
Epoch: Nov 7, 2025 • Age: 62 hours

Current Status

Altitude 443.3 km
Velocity 7.65 km/s
Sub-Earth Point -67.43°S, 76.89°W
Launch Date Jan 14, 2025
Age 0.8 years
Type other

Technical Details

Classification Payload
Mass 0.38 kg
Dry Mass 0.25 kg
Total Mass 0.38 kg
Length 0.08 m
Diameter 0.05 m
Span 0.08 m
Shape Box
Manufacturer AMEA/HYDRA
Bus Type PocketQube 1.5P
Phase Status In Orbit
Owner/State AMEA/HYDRA/E

Large Constellations

Loading constellations...